Fairfield, IL

5:48 PM CST on November 20, 2017 (GMT -0600)
Fairfield Municipal

Weather History for KFWC - December, 2012

Change the Weather History Date:

Sunday, December 23, 2012

  Actual Average (KEVV) Record (KEVV)
Temperature  
Mean Temperature 44 °F -  
Max Temperature 55 °F 41 °F 68 °F (1933)
Min Temperature 33 °F 25 °F -13 °F (1989)
Degree Days  
Heating Degree Days 21    
Moisture  
Dew Point 32 °F    
Average Humidity 65    
Maximum Humidity 81    
Minimum Humidity 36    
Precipitation  
Precipitation 0.00 in - - ()
Sea Level Pressure  
Sea Level Pressure 29.93 in    
Wind  
Wind Speed 4 mph (West)    
Max Wind Speed 8 mph    
Max Gust Speed -    
Visibility 10 miles    
Events      
Averages and records for this station are not official NWS values.
T = Trace of Precipitation, MM = Missing Value Source: NWS Daily Summary

Daily Weather History Graph

Daily Weather History Graph

Search for Another Location

Airport or City:

Trip Planner

Search our weather history database for the weather conditions in past years. The results will help you decide how hot, cold, wet, or windy it might be!

Date:

Astronomy

Dec. 23, 2012 Rise Set
Actual Time 7:08 AM CST 4:37 PM CST
Civil Twilight 6:38 AM CST 5:07 PM CST
Nautical Twilight 6:05 AM CST 5:40 PM CST
Astronomical Twilight 5:33 AM CST 6:13 PM CST
Moon 1:26 PM CST (12/23) 2:52 AM CST (12/23)
Length of Visible Light 10h 29m
Length of Day
9h 29m
Waxing Gibbous, 82% of the Moon is Illuminated
Dec 23
Waxing Gibbous
Dec 28
Full
Jan 4
Last Quarter
Jan 11
New
Jan 18
First Quarter

Hourly Weather History & Observations

Time (CST) Temp. Windchill Dew Point Humidity Pressure Visibility Wind Dir Wind Speed Gust Speed Precip Events Conditions
12:15 AM 33.8 °F 27.7 °F 24.8 °F 70% 29.99 in 10.0 mi South 6.9 mph - N/A   Clear
12:35 AM 33.8 °F 29.6 °F 24.8 °F 70% 29.98 in 10.0 mi SSW 4.6 mph - N/A   Clear
12:55 AM 35.6 °F 30.7 °F 26.6 °F 70% 29.98 in 10.0 mi SSW 5.8 mph - N/A   Clear
1:15 AM 35.6 °F 31.7 °F 26.6 °F 70% 29.98 in 10.0 mi SSW 4.6 mph - N/A   Clear
1:35 AM 35.6 °F 31.7 °F 26.6 °F 70% 29.97 in 10.0 mi SSW 4.6 mph - N/A   Clear
1:55 AM 35.6 °F 31.7 °F 28.4 °F 75% 29.97 in 10.0 mi SSW 4.6 mph - N/A   Clear
2:15 AM 35.6 °F 31.7 °F 28.4 °F 75% 29.97 in 10.0 mi SSW 4.6 mph - N/A   Clear
2:35 AM 37.4 °F 33.8 °F 28.4 °F 70% 29.97 in 10.0 mi SSW 4.6 mph - N/A   Clear
2:55 AM 37.4 °F 32.8 °F 28.4 °F 70% 29.97 in 10.0 mi SSW 5.8 mph - N/A   Clear
3:15 AM 37.4 °F 32.8 °F 28.4 °F 70% 29.96 in 10.0 mi SSW 5.8 mph - N/A   Clear
3:35 AM 37.4 °F 33.8 °F 28.4 °F 70% 29.96 in 10.0 mi SSW 4.6 mph - N/A   Clear
3:55 AM 37.4 °F - 28.4 °F 70% 29.95 in 10.0 mi Calm Calm - N/A   Clear
4:15 AM 37.4 °F 33.8 °F 28.4 °F 70% 29.95 in 10.0 mi SSW 4.6 mph - N/A   Clear
4:35 AM 39.2 °F 37.0 °F 28.4 °F 65% 29.95 in 10.0 mi SSW 3.5 mph - N/A   Clear
4:55 AM 37.4 °F - 28.4 °F 70% 29.95 in 10.0 mi Calm Calm - N/A   Clear
5:15 AM 39.2 °F 35.9 °F 30.2 °F 70% 29.95 in 10.0 mi SSW 4.6 mph - N/A   Clear
5:35 AM 37.4 °F - 30.2 °F 75% 29.95 in 10.0 mi Calm Calm - N/A   Clear
5:55 AM 37.4 °F 34.9 °F 30.2 °F 75% 29.96 in 10.0 mi SW 3.5 mph - N/A   Clear
6:15 AM 37.4 °F 33.8 °F 30.2 °F 75% 29.96 in 10.0 mi SW 4.6 mph - N/A   Clear
6:35 AM 37.4 °F 34.9 °F 30.2 °F 75% 29.96 in 10.0 mi WSW 3.5 mph - N/A   Clear
6:55 AM 37.4 °F 32.8 °F 30.2 °F 75% 29.97 in 10.0 mi WSW 5.8 mph - N/A   Clear
7:15 AM 35.6 °F - 28.4 °F 75% 29.96 in 10.0 mi Calm Calm - N/A   Clear
7:35 AM 33.8 °F 29.6 °F 28.4 °F 81% 29.97 in 10.0 mi SSW 4.6 mph - N/A   Clear
7:55 AM 33.8 °F - 28.4 °F 81% 29.97 in 10.0 mi Calm Calm - N/A   Clear
8:15 AM 39.2 °F 35.9 °F 30.2 °F 70% 29.96 in 10.0 mi SW 4.6 mph - N/A   Clear
8:35 AM 39.2 °F 35.9 °F 32.0 °F 75% 29.97 in 10.0 mi SW 4.6 mph - N/A   Clear
8:55 AM 41.0 °F 39.0 °F 32.0 °F 70% 29.97 in 10.0 mi SW 3.5 mph - N/A   Clear
9:15 AM 42.8 °F 41.1 °F 33.8 °F 70% 29.97 in 10.0 mi SW 3.5 mph - N/A   Clear
9:35 AM 44.6 °F 41.4 °F 33.8 °F 66% 29.97 in 10.0 mi SW 5.8 mph - N/A   Clear
9:55 AM 46.4 °F 43.5 °F 33.8 °F 62% 29.97 in 10.0 mi SW 5.8 mph - N/A   Clear
10:15 AM 46.4 °F 42.9 °F 33.8 °F 62% 29.97 in 10.0 mi SW 6.9 mph - N/A   Clear
10:35 AM 48.2 °F - 33.8 °F 58% 29.96 in 10.0 mi SW 8.1 mph - N/A   Clear
10:55 AM 50.0 °F - 33.8 °F 54% 29.96 in 10.0 mi WSW 6.9 mph - N/A   Clear
11:15 AM 51.8 °F - 33.8 °F 50% 29.95 in 10.0 mi WSW 5.8 mph - N/A   Clear
11:35 AM 51.8 °F - 32.0 °F 47% 29.94 in 10.0 mi WSW 3.5 mph - N/A   Clear
11:55 AM 51.8 °F - 33.8 °F 50% 29.94 in 10.0 mi West 3.5 mph - N/A   Clear
12:15 PM 53.6 °F - 33.8 °F 47% 29.93 in 10.0 mi Calm Calm - N/A   Clear
12:35 PM 53.6 °F - 32.0 °F 44% 29.92 in 10.0 mi Calm Calm - N/A   Clear
12:55 PM 53.6 °F - 30.2 °F 41% 29.91 in 10.0 mi West 3.5 mph - N/A   Clear
1:15 PM 55.4 °F - 30.2 °F 38% 29.91 in 10.0 mi WSW 3.5 mph - N/A   Clear
1:35 PM 55.4 °F - 30.2 °F 38% 29.90 in 10.0 mi Calm Calm - N/A   Clear
1:55 PM 55.4 °F - 30.2 °F 38% 29.90 in 10.0 mi Calm Calm - N/A   Clear
2:15 PM 55.4 °F - 30.2 °F 38% 29.89 in 10.0 mi Calm Calm - N/A   Clear
2:35 PM 55.4 °F - 30.2 °F 38% 29.89 in 10.0 mi Calm Calm - N/A   Clear
2:55 PM 55.4 °F - 28.4 °F 36% 29.89 in 10.0 mi Calm Calm - N/A   Clear
3:15 PM 53.6 °F - 35.6 °F 51% 29.89 in 10.0 mi NE 6.9 mph - N/A   Clear
3:35 PM 51.8 °F - 35.6 °F 54% 29.89 in 10.0 mi NNE 5.8 mph - N/A   Clear
3:55 PM 51.8 °F - 35.6 °F 54% 29.89 in 10.0 mi NNE 4.6 mph - N/A   Clear
4:15 PM 50.0 °F - 35.6 °F 58% 29.89 in 10.0 mi NNE 3.5 mph - N/A   Clear
4:35 PM 48.2 °F - 35.6 °F 62% 29.90 in 10.0 mi NE 3.5 mph - N/A   Clear
4:55 PM 46.4 °F 44.3 °F 35.6 °F 66% 29.90 in 10.0 mi NNE 4.6 mph - N/A   Clear
5:15 PM 46.4 °F 44.3 °F 33.8 °F 62% 29.91 in 10.0 mi NNE 4.6 mph - N/A   Clear
5:35 PM 44.6 °F 41.4 °F 33.8 °F 66% 29.91 in 10.0 mi NNE 5.8 mph - N/A   Scattered Clouds
5:55 PM 44.6 °F 42.2 °F 33.8 °F 66% 29.92 in 10.0 mi NNE 4.6 mph - N/A   Scattered Clouds
6:15 PM 44.6 °F 41.4 °F 33.8 °F 66% 29.91 in 10.0 mi NNE 5.8 mph - N/A   Mostly Cloudy
6:35 PM 44.6 °F 41.4 °F 35.6 °F 71% 29.91 in 10.0 mi NNE 5.8 mph - N/A   Overcast
6:55 PM 44.6 °F 41.4 °F 33.8 °F 66% 29.91 in 10.0 mi NNE 5.8 mph - N/A   Overcast
7:15 PM 44.6 °F 41.4 °F 32.0 °F 61% 29.91 in 10.0 mi NNE 5.8 mph - N/A   Mostly Cloudy
7:35 PM 44.6 °F 41.4 °F 32.0 °F 61% 29.90 in 10.0 mi NE 5.8 mph - N/A   Mostly Cloudy
7:55 PM 42.8 °F 39.3 °F 32.0 °F 66% 29.89 in 10.0 mi NE 5.8 mph - N/A   Scattered Clouds
8:15 PM 42.8 °F 40.1 °F 32.0 °F 66% 29.89 in 10.0 mi NE 4.6 mph - N/A   Clear
8:35 PM 41.0 °F 37.1 °F 32.0 °F 70% 29.88 in 10.0 mi NE 5.8 mph - N/A   Clear
8:55 PM 39.2 °F 35.9 °F 32.0 °F 75% 29.89 in 10.0 mi NNE 4.6 mph - N/A   Scattered Clouds
9:15 PM 39.2 °F 35.0 °F 33.8 °F 81% 29.88 in 10.0 mi NNE 5.8 mph - N/A   Overcast
9:35 PM 39.2 °F 35.9 °F 33.8 °F 81% 29.88 in 10.0 mi NNE 4.6 mph - N/A   Overcast
9:55 PM 41.0 °F 38.0 °F 33.8 °F 76% 29.88 in 10.0 mi NNE 4.6 mph - N/A   Overcast
10:15 PM 41.0 °F 38.0 °F 33.8 °F 76% 29.88 in 10.0 mi NNE 4.6 mph - N/A   Overcast
10:35 PM 41.0 °F 37.1 °F 33.8 °F 76% 29.87 in 10.0 mi NE 5.8 mph - N/A   Overcast
10:55 PM 41.0 °F 38.0 °F 35.6 °F 81% 29.87 in 10.0 mi NNE 4.6 mph - N/A   Overcast
11:15 PM 41.0 °F 38.0 °F 35.6 °F 81% 29.86 in 10.0 mi NE 4.6 mph - N/A   Overcast
11:35 PM 41.0 °F - 35.6 °F 81% 29.85 in 10.0 mi Calm Calm - N/A   Overcast
11:55 PM 41.0 °F 39.0 °F 35.6 °F 81% 29.84 in 10.0 mi NNE 3.5 mph - N/A   Overcast